Location: Sommers-Bausch Observatory
(40.0037°N, 105.2635°W)
Time: 18:12:13
(UTC-07:00)

Daily predictions for brighter satellites

Satellite Brightness Start Highest point End
(mag) Time Altitude Azimuth Time Altitude Azimuth Time Altitude Azimuth
Cosmos 1459 Rocket 4.1 17:00:42 10° S 17:07:05 90° W 17:13:27 10° N
COSMOS 2441 4.5 17:03:17 10° SSE 17:08:09 88° WSW 17:13:04 10° NNW
USA 234 3.6 17:04:05 10° NE 17:10:27 53° SE 17:16:47 10° SSW
Cosmos 2100 Rocket 4.2 17:04:32 10° S 17:10:43 79° W 17:17:01 10° N
BREEZE-M DEB (TANK) 2.6 17:10:43 10° WSW 17:13:00 59° NNW 17:15:38 10° NE
CZ-2C R/B 3.3 17:09:05 10° S 17:13:53 56° W 17:18:52 10° NNW
Cosmos 2263 Rocket 3.8 17:09:13 10° WSW 17:14:19 34° WNW 17:19:24 10° N
Cosmos 1346 2.6 17:15:23 10° S 17:17:37 47° E 17:19:51 10° NNE
NOSS 3-2 (C) 4.1 17:13:09 10° SW 17:18:59 57° NW 17:25:28 10° NNE
BREEZE-M DEB (TANK) 3.5 17:07:06 10° WNW 17:19:02 78° NNE 17:22:53 10° ESE
Cosmos 332 Rocket 3.9 17:15:11 10° N 17:19:59 57° ENE 17:24:47 10° SSE
Cosmos 1802 Rocket 4.1 17:14:16 10° S 17:20:28 84° W 17:26:39 10° N
Cosmos 2242 Rocket 3.9 17:16:58 10° SSE 17:21:21 47° E 17:25:43 10° NNE
Meteor 1-28 Rocket 3.3 17:21:16 10° NNE 17:24:53 50° E 17:28:29 10° S
COSMOS 2455 3.4 17:20:06 10° S 17:25:34 38° ESE 17:31:04 10° NE
CZ-2C R/B 3.8 17:22:19 10° NNE 17:26:41 53° E 17:31:05 10° S
Aureole 3 3.8 17:24:46 10° N 17:28:59 64° E 17:34:23 10° SSE
CORIOLIS 4.1 17:25:38 10° SSE 17:31:02 71° ENE 17:36:28 10° N
SKYMED 2 4.3 17:28:50 10° NNE 17:32:44 31° E 17:36:35 10° SSE
IRS-1A Rocket 4.4 17:27:01 10° SSE 17:32:46 61° ENE 17:38:27 10° N
Landsat 4 3.9 17:29:23 10° NNE 17:33:03 49° E 17:36:43 10° S
OE (NEXTSAT) 4.5 17:33:04 10° WNW 17:36:34 59° NNE 17:39:28 14° E
CZ-4 R/B 1.2 17:36:29 10° SSE 17:40:24 80° ENE 17:44:17 10° N
ALOS 3.1 17:36:49 10° SE 17:40:42 27° ENE 17:44:37 10° NNE
BREEZE M DEB (TANK) 3.3 17:38:05 10° WNW 17:41:17 33° SW 17:43:21 10° SSE
Cosmos 1733 Rocket 3.0 17:37:19 10° N 17:41:43 63° E 17:46:07 10° SSE
Cosmos 468 Rocket 4.1 17:36:54 10° N 17:42:00 53° ENE 17:47:00 10° SE
Cosmos 2082 Rocket 3.8 17:40:28 10° NNE 17:43:33 15° NE 17:44:18 14° ENE
Cosmos 1816 Rocket 4.4 17:39:31 10° N 17:45:38 68° E 17:51:44 10° SSE
Cosmos 1862 Rocket 3.5 17:43:29 10° S 17:47:50 70° E 17:52:17 10° NNE
Cosmos 1725 Rocket 4.1 17:44:17 10° S 17:50:36 82° W 17:56:55 10° N
Lacrosse 5 3.4 17:48:44 10° W 17:53:05 28° NNW 17:57:27 10° NNE
SMAP 3.8 17:48:59 10° S 17:53:33 57° W 17:58:08 10° NNW
Cosmos 972 Rocket 3.8 17:49:59 10° NNW 17:54:57 71° ENE 17:59:50 10° SSE
ERBS 3.8 17:52:36 10° NNW 17:55:15 21° NE 17:55:23 21° NE
Cosmos 1933 4.1 17:52:36 10° SSW 17:56:34 53° W 18:00:32 10° N
CENTAUR R/B 2.7 17:53:51 10° SW 17:59:49 75° NW 18:06:41 10° NNE
Tsikada Rocket 4.1 17:53:47 10° N 17:59:58 82° W 18:06:07 10° S
CZ-3A R/B 4.1 17:44:25 10° NW 18:02:18 64° NNE 18:07:23 16° ESE
Cosmos 1340 3.8 17:59:32 10° SSW 18:03:09 45° WNW 18:06:48 10° N
MOS 1 4.2 17:58:46 10° SSE 18:04:26 73° ENE 18:10:08 10° N
COSMOS 2406 3.3 18:00:26 10° NNW 18:06:12 79° WSW 18:11:53 10° SSE
Cosmos 1763 Rocket 3.5 18:03:43 10° N 18:08:52 54° ENE 18:13:53 10° SE
Cosmos 1814 Rocket 4.0 18:04:00 10° NNW 18:09:19 62° ENE 18:14:36 10° SSE
Cosmos 1437 3.3 18:07:06 10° SSW 18:10:13 58° W 18:13:22 10° N
Meteor 1-26 Rocket 4.2 18:07:20 10° S 18:12:58 84° W 18:18:33 10° N
Cosmos 972 4.5 18:08:06 10° N 18:13:07 52° ENE 18:17:52 10° SSE
Cosmos 2221 Rocket 4.4 18:15:10 10° SSE 18:18:17 31° ESE 18:18:17 31° ESE
Cosmos 1782 Rocket 4.4 18:15:11 10° N 18:17:56 30° NE 18:17:56 30° NE
DMSP B5D1-3 4.5 18:14:47 10° NNE 18:19:56 63° ESE 18:25:01 10° S
NOAA 12 4.0 18:15:21 10° SSE 18:20:37 70° ENE 18:25:56 10° N
COSMO-SKYMED 1 2.7 18:16:33 10° N 18:20:53 73° WNW 18:25:12 10° SSW
ERS-2 3.0 18:17:55 10° S 18:21:30 51° WSW 18:25:07 10° NNW
Okean 1-7 3.4 18:19:10 10° SSE 18:23:00 41° ESE 18:23:00 41° ESE
METEOR-M 4.4 18:18:07 10° S 18:23:26 70° WSW 18:28:46 10° NNW
BREEZE-M DEB (TANK) 2.1 18:21:32 10° SW 18:23:17 60° SW 18:23:17 60° SW
YAOGAN 1 3.6 18:19:34 10° S 18:23:44 47° W 18:27:56 10° NNW
Cosmos 1844 Rocket 3.9 18:18:39 10° SW 18:23:58 41° WNW 18:29:17 10° N
SPOT 3 Rocket 3.5 18:22:00 10° SSE 18:27:13 87° WSW 18:32:29 10° NNW
Cosmos 1486 Rocket 3.8 18:26:40 10° SSW 18:31:51 78° ESE 18:34:48 26° NNE
Cosmos 2297 4.3 18:32:16 10° S 18:36:49 37° ESE 18:36:49 37° ESE
Cosmos 841 Rocket 3.3 18:34:32 10° NNW 18:39:51 77° ENE 18:44:08 16° SSE
Cosmos 1782 2.7 18:38:18 10° S 18:42:21 88° E 18:42:23 87° NE
BREEZE-M DEB (TANK) 4.1 18:40:09 10° NNW 18:41:01 17° NNW 18:41:01 17° NNW
Cosmos 1464 Rocket 3.8 18:38:12 10° S 18:44:16 71° E 18:50:23 10° NNE
Cosmos 1354 Rocket 4.3 18:39:46 10° S 18:44:11 47° SE 18:44:11 47° SE
Cosmos 1703 Rocket 3.8 18:42:06 10° SSW 18:46:32 71° W 18:49:17 23° N
Celestis-02/Orion 38 4.4 18:45:33 39° NNE 18:47:30 89° NW 18:52:40 10° SSW
Cosmos 2278 Rocket 2.4 18:42:15 10° SSW 18:47:54 72° WNW 18:51:19 25° NNE
Cosmos 304 Rocket 4.1 18:45:02 10° NNW 18:49:48 65° WSW 18:54:32 10° S
Cosmos 540 Rocket 4.4 18:44:52 10° N 18:47:57 32° NNE 18:47:57 32° NNE
Cosmos 1833 Rocket 3.4 18:45:41 10° NNW 18:49:37 37° NNE 18:49:37 37° NNE
FENGYUN 3A 4.0 18:46:11 10° S 18:51:33 65° WSW 18:56:57 10° NNW
Atlas 2A Centaur Rocket 4.3 18:40:37 10° WSW 18:52:01 26° SSW 18:54:17 20° SSE
USA 234 3.9 18:49:45 25° NNE 18:53:23 48° NNW 18:59:35 10° WSW
CZ-4C R/B 3.9 18:48:43 10° NNW 18:53:36 26° NNE 18:53:36 26° NNE
Meteor 2-6 Rocket 4.0 18:53:34 10° S 18:58:58 85° E 19:00:08 57° NNE
Cosmos 1606 3.7 18:56:13 10° SSW 18:59:19 45° WSW 18:59:19 45° WSW
Thor Agena Rocket 3.4 19:05:23 82° SSW 19:05:23 82° SSW 19:10:16 10° SSW
COSMOS 2455 4.2 19:06:02 10° WSW 19:11:29 35° NW 19:15:04 19° N
FengYun 1-2 T 4.2 19:09:33 30° S 19:12:25 78° WSW 19:17:59 10° NNW
ALOS 4.1 19:13:58 10° SSW 19:18:02 29° W 19:22:08 10° NW
Cosmos 2082 Rocket 3.2 19:22:45 10° NNW 19:26:12 38° NNW 19:26:12 38° NNW
Lacrosse 5 4.4 19:35:38 10° NNW 19:36:49 12° NNW 19:36:49 12° NNW
